Regional Weather Roundup
Issued by NWS

Home | Current Version | Previous Version | Text Only | Print | Product List | Glossary On
Versions: 1 2 3 4 5 6 7 8 9 10 11 12 13 14 15 16 17 18 19 20 21 22 23 24 25 26 27 28 29 30 31 32 33 34 35 36 37 38 39 40 41 42 43 44 45 46 47 48 49 50
000
ASUS43 KDMX 220007
RWRIA

WEATHER ROUNDUP FOR IOWA
NATIONAL WEATHER SERVICE DES MOINES IA
600 PM CST SUN DEC 21 2014

NOTE: "FAIR" INDICATES FEW OR NO CLOUDS BELOW 12,000 FEET WITH NO
SIGNIFICANT WEATHER AND/OR OBSTRUCTIONS TO VISIBILITY.

* - THESE STATIONS ARE NOT NWS STATIONS...THUS NOT UNDER NWS
QUALITY CONTROL.  THEY ALSO DO NOT REPORT WEATHER SUCH
AS PRECIPITATION OR FOG.

IAZ001>003-012>014-020>022-031>034-043>046-220100-
   NORTHWEST IOWA

CITY           SKY/WX    TMP DP  RH WIND       PRES   REMARKS
CARROLL *      CLOUDY    39  39 100 S16G22    29.72F WCI  30
CHEROKEE *     CLOUDY    38  38 100 S17       29.68S FOG     WCI  29
DENISON *      CLOUDY    39  39 100 S17G24    29.68F FOG     WCI  30
LE MARS *      CLOUDY    39  39 100 S16G23    29.65S WCI  30
ORANGE CITY *  CLOUDY    39  37  93 S14G23    29.64S FOG     WCI  31
SHELDON *      CLOUDY    37  37 100 S20G28    29.63S FOG     WCI  27
SIOUX CITY     CLOUDY    42  38  85 S15       29.66S
6HR MIN TEMP:  41; 6HR MAX TEMP:  43;

SPENCER        CLOUDY    39  37  92 S14       29.68S FOG     WCI  31
6HR MIN TEMP:  38; 6HR MAX TEMP:  39; 6HR PCP: TRACE;

STORM LAKE *   CLOUDY    37  37 100 S17       29.69S FOG     WCI  28
$$

IAZ055>058-069>071-079>083-090>094-220100-
   SOUTHWEST IOWA

CITY           SKY/WX    TMP DP  RH WIND       PRES   REMARKS
ATLANTIC *     CLOUDY    41  41 100 S14G21    29.73F FOG
AUDUBON *      CLOUDY    39  36  87 S13G20    29.74F HAZE    WCI  32
CLARINDA *     CLOUDY    41  41 100 S10       29.78F
COUNCIL BLFS * CLOUDY    41  41 100 S14       29.70S FOG
CRESTON *      CLOUDY    39  39 100 S14       29.78F FOG     WCI  31
HARLAN  *      CLOUDY    39  39 100 S17       29.75S FOG     WCI  30
LAMONI         CLOUDY    41  39  93 SE9       29.81F
6HR MIN TEMP:  38; 6HR MAX TEMP:  41; 6HR PCP:  0.01;

RED OAK *      CLOUDY    41  41 100 S16G22    29.75F
SHENANDOAH *   CLOUDY    43  41  93 S16       29.75F
$$

IAZ047>049-059>061-072>074-084-220100-
   CENTRAL IOWA

CITY           SKY/WX    TMP DP  RH WIND       PRES   REMARKS
AMES           CLOUDY    40  36  86 S9        29.80S WCI  34
6HR MIN TEMP:  39; 6HR MAX TEMP:  41;

ANKENY *       CLOUDY    41  39  93 S14       29.80F
CHARITON *     CLOUDY    41  39  93 S15       29.82F
DES MOINES     CLOUDY    42  37  82 S12       29.81F
6HR MIN TEMP:  41; 6HR MAX TEMP:  43;

GRINNELL*      CLOUDY    39  37  93 SE13      29.84F WCI  32
KNOXVILLE *    CLOUDY    43  37  81 S12       29.82F
MARSHALLTOWN   CLOUDY    39  37  92 SE12      29.81F WCI  32
6HR MIN TEMP:  39; 6HR MAX TEMP:  41;

PELLA *        CLOUDY    42  38  85 SE10G17   29.85F
PERRY *        CLOUDY    41  39  93 S14       29.77S FOG
$$

IAZ004>006-015-016-023>025-035-036-220100-
   NORTH CENTRAL IOWA

CITY           SKY/WX    TMP DP  RH WIND       PRES   REMARKS
ALGONA *       CLOUDY    37  36  93 S20       29.72F FOG     WCI  27
CLARION *      CLOUDY    37  37 100 S14       29.77S WCI  29
ESTHERVILLE    CLOUDY    37  36  96 S25       29.68F FOG     WCI  25
6HR MIN TEMP:  35; 6HR MAX TEMP:  37;

FORT DODGE *   CLOUDY    37  34  87 S13G18    29.75F WCI  29
MASON CITY     CLOUDY    37  35  92 S15       29.79S WCI  28
6HR MIN TEMP:  36; 6HR MAX TEMP:  37; 6HR PCP:  0.01;

FOREST CITY *  CLOUDY    36  36 100 S14G20    29.75F WCI  27
IOWA FALLS *   CLOUDY    38  36  91 SE14      29.80F WCI  30
$$

IAZ007>011-017>019-026>030-037>042-050>054-066-220100-
   NORTHEAST IOWA

CITY           SKY/WX    TMP DP  RH WIND       PRES   REMARKS
CEDAR RAPIDS   CLOUDY    39  36  89 SE10      29.89S WCI  32
6HR MIN TEMP:  38; 6HR MAX TEMP:  40;

CHARLES CITY * CLOUDY    37  37 100 S14       29.82F FOG     WCI  29
CLINTON *      MOCLDY    36  30  80 S20       29.99S WCI  25
DECORAH *      CLOUDY    36  36 100 S9        29.85S FOG     WCI  29
DUBUQUE        CLOUDY    35  32  88 S20       29.92S WCI  24
6HR MIN TEMP:  35; 6HR MAX TEMP:  37;

MONTICELLO *   CLOUDY    37  37 100 SE13      29.91S WCI  29
OELWEIN *      CLOUDY    37  37 100 S15       29.87S FOG     WCI  28
WATERLOO       CLOUDY    38  37  97 S14       29.84F FOG     WCI  30
6HR MIN TEMP:  38; 6HR MAX TEMP:  39; 6HR PCP: TRACE;

$$

IAZ064-065-067-068-078-220100-
   EAST CENTRAL IOWA

CITY           SKY/WX    TMP DP  RH WIND       PRES   REMARKS
DAVENPORT      CLOUDY    37  31  78 SE15      29.96S WCI  28
6HR MIN TEMP:  37; 6HR MAX TEMP:  40;

IOWA CITY      CLOUDY    40  35  83 SE14      29.92S WCI  32
6HR MIN TEMP:  39; 6HR MAX TEMP:  41;

MT. PLEASANT * CLOUDY    40  35  83 SE15G21   29.92F WCI  32
MUSCATINE *    MOCLDY    41  34  75 SE12      29.94F
QUAD CITIES    CLOUDY    37  31  78 SE10      29.96F WCI  30
6HR MIN TEMP:  37; 6HR MAX TEMP:  41;

$$

IAZ062-063-075>077-085>089-095>099-220100-
   SOUTHEAST IOWA

CITY           SKY/WX    TMP DP  RH WIND       PRES   REMARKS
BURLINGTON     CLOUDY    40  34  79 SE12      29.94S WCI  33
6HR MIN TEMP:  40; 6HR MAX TEMP:  43; 6HR PCP: TRACE;

FAIRFIELD *    CLOUDY    41  37  87 SE10      29.90S
FORT MADISON * CLOUDY    43  37  81 SE9G17    29.94S
KEOKUK *       CLOUDY    43  36  75 SE10G17   29.93S
OSKALOOSA *    CLOUDY    40  38  91 S15       29.87F WCI  32
CENTERVILLE *  LGT RAIN  41  41 100 SE7       29.88S
OTTUMWA        LGT RAIN  41  38  89 S10       29.88S
6HR MIN TEMP:  41; 6HR MAX TEMP:  43; 6HR PCP: TRACE;

WASHINGTON *   CLOUDY    41  41 100 SE10      29.91S
$$

ABBREVIATIONS USED IN REMARKS
   TC - TEMPERATURES IN CELSIUS
  WCI - WIND CHILL INDEX
   HX - HEAT INDEX
  VSB - VISIBILITY
$$




USA.gov is the U.S. government's official web portal to all federal, state and local government web resources and services.